[[{"header":{"parameterUnit":"m.s-1","parameterCategory":1,"la1":30.2991,"la2":30.254,"lo1":-89.0895,"lo2":-89.0444,"dy":0.0017,"dx":0.0017,"nx":28,"ny":28,"refTime":"2023-11-06T03:00:00:Z","depth":0,"parameterNumber":2,"parameterNumberName":"U-component_of_WINDS"},"data":[0,0,0,0,0,0,0,0,0,0,0,0,0,0,0,0,0,0,0,0,0,0,0,0,0,0,0,0,0,0,0,0,0,0,0,0,0,0,0,0,0,0,0,0,0,0,0,0,0,0,0,0,0,0,0,0,0,0,1.3254,1.3254,0,1.3257,1.3257,1.3257,1.3195,1.3193,1.3191,1.319,1.3192,1.3194,1.3196,0,0,0,0,0,0,0,0,0,0,0,0,0,1.3195,1.3197,1.3254,1.3254,1.3254,1.3257,1.3257,1.3257,1.3195,1.3193,1.3191,1.3189,1.3192,1.3194,1.3196,0,0,0,0,0,0,0,0,0,0,0,0,0,1.3212,1.3197,1.3254,1.3223,1.3221,1.3257,1.3257,1.3257,1.3195,1.3193,1.319,1.3188,1.3191,1.3194,1.3196,1.3261,0,0,1.3203,1.3204,0,0,0,0,0,0,0,0,1.3211,1.3214,1.3228,1.3226,1.3223,1.3223,1.3237,1.3258,1.3196,1.3205,1.319,1.3187,1.3204,1.3206,1.3212,1.3261,1.3262,1.3204,1.3205,1.3206,1.3207,0,0,0,0,0,0,0,1.321,1.3214,1.3255,1.3228,1.3225,1.321,1.3209,1.3241,1.3219,1.3204,1.3199,1.3201,1.3203,1.321,1.3211,1.3262,1.3204,1.3206,1.3207,1.3208,1.3366,1.3368,0,0,0,0,0,0,1.3213,1.3213,1.3255,1.3255,1.3211,1.3213,1.3212,1.3225,1.3218,1.3215,1.3203,1.3198,1.3207,1.3209,1.3211,1.3288,1.3206,1.3208,1.321,1.3363,1.3366,1.3369,0,0,0,0,0,0,1.3212,1.3217,1.3255,1.3233,1.3237,1.3217,1.3232,1.3227,1.3233,1.3217,1.3213,1.3214,1.3205,1.3208,1.3249,1.3287,1.321,1.3212,1.336,1.3364,1.3368,1.3441,0,0,0,0,0,0,1.321,1.3217,1.3242,1.3234,1.3238,1.3293,1.3234,1.3229,1.3238,1.3231,1.3227,1.3223,1.3203,1.3246,1.3252,1.3289,1.3214,1.3356,1.3362,1.3367,1.3435,1.3447,1.3457,0,0,0,0,0,1.3209,1.3262,1.3243,1.3249,1.3268,1.3295,1.3298,1.3273,1.3241,1.3266,1.3255,1.3224,1.3282,1.3251,1.3257,1.3295,1.3354,1.336,1.3366,1.343,1.3445,1.3457,0,0,0,0,0,0,1.3274,1.326,1.3239,1.3292,1.3295,1.3285,1.3315,1.3289,1.3302,1.3295,1.3264,1.3263,1.331,1.3307,1.3273,1.3358,1.3312,1.332,1.3359,1.3372,1.3383,1.3383,1.3216,0,0,0,0,0,1.3295,1.3318,1.3305,1.3352,1.3355,1.3335,1.3346,1.3327,1.3329,1.333,1.3323,1.3327,1.3346,1.3359,1.3375,1.3434,1.3433,1.3464,1.3475,1.3484,1.3491,1.3522,1.3536,1.3389,1.3389,1.3389,0,0,1.3337,1.3333,1.3349,1.3365,1.3366,1.3391,1.3337,1.3365,1.3384,1.3335,1.3374,1.3369,1.3371,1.3422,1.3443,1.342,1.3531,1.3492,1.3499,1.3501,1.353,1.3544,1.3556,1.3394,1.3393,1.3392,0,0,1.3428,1.3427,1.3466,1.3468,1.347,1.3456,1.3466,1.346,1.3455,1.3494,1.3458,1.3479,1.3513,1.3516,1.3522,1.3615,1.3586,1.3621,1.3679,1.371,1.3721,1.3731,1.3765,1.3777,1.3628,1.3628,1.3628,0,1.3481,1.3517,1.349,1.3522,1.353,1.3487,1.3527,1.353,1.3538,1.3544,1.3518,1.356,1.3558,1.3609,1.3632,1.3638,1.3649,1.3621,1.3722,1.3732,1.3741,1.3772,1.3785,1.3633,1.3632,1.3632,1.3631,0,1.3582,1.3608,1.364,1.3648,1.366,1.3696,1.3675,1.369,1.367,1.366,1.37,1.3697,1.3712,1.3723,1.3704,1.3772,1.3758,1.3727,1.368,1.3759,1.3789,1.3801,1.3639,1.3637,1.3636,1.3635,0,0,1.3713,1.3707,1.3719,1.3723,1.3722,1.3742,1.3776,1.3791,1.3805,1.3812,1.384,1.387,1.3842,1.3849,1.383,1.3857,1.3932,1.3823,1.3823,1.3844,1.4007,1.403,1.4045,1.3913,1.3915,1.3917,1.4007,0,1.3801,1.3859,1.3836,1.3896,1.392,1.388,1.391,1.3913,1.3905,1.3924,1.3914,1.3936,1.3897,1.3901,1.3927,1.3917,1.3964,1.391,1.3939,1.394,1.394,1.406,1.4084,1.4169,1.4018,1.402,1.4022,0,1.3911,1.3923,1.3985,1.3982,1.3991,1.4018,1.4031,1.405,1.4052,1.4044,1.4053,1.4028,1.4061,1.4015,1.4061,1.4025,1.4035,1.4033,1.4036,1.4037,1.3986,1.4065,1.4196,1.4209,1.4039,1.4038,1.4037,0,1.4001,1.4032,1.4074,1.4078,1.4075,1.4095,1.4094,1.4095,1.4106,1.4117,1.4124,1.4139,1.4148,1.416,1.414,1.4108,1.4189,1.4141,1.4183,1.4184,1.4202,1.4201,1.4337,1.4209,1.4209,1.4209,1.4208,0,1.4101,1.4141,1.4114,1.414,1.4183,1.4157,1.4201,1.4196,1.4197,1.4222,1.4188,1.4212,1.4184,1.4205,1.4189,1.423,1.4234,1.4228,1.4224,1.4232,1.4232,1.4238,1.4231,1.4212,1.4211,1.421,1.421,0,1.4208,1.4192,1.4235,1.4228,1.4228,1.426,1.4255,1.4278,1.4268,1.4299,1.4304,1.4288,1.4311,1.4292,1.4315,1.4304,1.4358,1.4345,1.4358,1.4354,1.4398,1.4394,1.4541,1.4559,1.442,1.4422,1.4423,0,1.4273,1.4303,1.43,1.4314,1.4316,1.4339,1.4351,1.4326,1.434,1.4346,1.4369,1.4389,1.4404,1.4443,1.4433,1.445,1.4437,1.4488,1.4439,1.4446,1.4438,1.4437,1.444,1.4497,1.4499,1.45,1.4501,0,1.4391,1.4382,1.44,1.4415,1.443,1.4441,1.4449,1.4463,1.4438,1.4455,1.4478,1.449,1.4513,1.4534,1.4548,1.4547,1.4521,1.4517,1.4528,1.4535,1.4541,1.4539,1.4384,1.4513,1.4512,1.4511,1.4511,1.451,1.4479,1.4504,1.4506,1.4528,1.4532,1.4541,1.4563,1.4556,1.4575,1.4592,1.4577,1.4605,1.4608,1.4624,1.4627,1.4649,1.4628,1.4643,1.4647,1.4651,1.4658,1.4538,1.4651,1.4651,1.465,1.465,1.465,0,1.4595,1.4595,1.4615,1.4628,1.4645,1.4619,1.4627,1.4643,1.4669,1.4674,1.469,1.4717,1.4737,1.4729,1.4747,1.4766,1.4755,1.4772,1.477,1.4771,1.4675,1.4664,1.4781,1.4781,1.4781,1.4781,1.4781,1.4781,1.4657,1.4699,1.469,1.4733,1.4733,1.476,1.4767,1.4776,1.478,1.4812,1.4829,1.4824,1.4824,1.4842,1.4859,1.4856,1.4865,1.4886,1.4879,1.479,1.4777,1.4765,1.4754,1.4888,1.4888,1.4973,1.4974,1.4974]},{"header":{"parameterUnit":"m.s-1","parameterCategory":1,"la1":30.2991,"la2":30.254,"lo1":-89.0895,"lo2":-89.0444,"dy":0.0017,"dx":0.0017,"nx":28,"ny":28,"refTime":"2023-11-06T03:00:00:Z","depth":0,"parameterNumber":3,"parameterNumberName":"V-component_of_WINDS"},"data":[0,0,0,0,0,0,0,0,0,0,0,0,0,0,0,0,0,0,0,0,0,0,0,0,0,0,0,0,0,0,0,0,0,0,0,0,0,0,0,0,0,0,0,0,0,0,0,0,0,0,0,0,0,0,0,0,0,0,0.6207,0.6207,0,0.6207,0.6207,0.6207,0.6185,0.6184,0.6184,0.6183,0.6183,0.6183,0.6184,0,0,0,0,0,0,0,0,0,0,0,0,0,0.6189,0.619,0.6207,0.6207,0.6207,0.6207,0.6207,0.6207,0.6185,0.6184,0.6184,0.6183,0.6183,0.6183,0.6184,0,0,0,0,0,0,0,0,0,0,0,0,0,0.6194,0.619,0.6207,0.6196,0.6195,0.6207,0.6207,0.6207,0.6185,0.6184,0.6183,0.6183,0.6182,0.6183,0.6184,0.6206,0,0,0.6186,0.6187,0,0,0,0,0,0,0,0,0.6193,0.6194,0.6198,0.6197,0.6196,0.6195,0.62,0.6206,0.6185,0.6189,0.6183,0.6182,0.6188,0.6188,0.619,0.6206,0.6206,0.6186,0.6187,0.6187,0.6188,0,0,0,0,0,0,0,0.6193,0.6194,0.6207,0.6198,0.6197,0.6191,0.6191,0.6201,0.6193,0.6189,0.6187,0.6187,0.6187,0.6189,0.619,0.6206,0.6186,0.6187,0.6188,0.6188,0.624,0.6241,0,0,0,0,0,0,0.6194,0.6194,0.6207,0.6207,0.6193,0.6192,0.6192,0.6196,0.6193,0.6192,0.6188,0.6186,0.6188,0.6189,0.6189,0.6215,0.6187,0.6188,0.6188,0.6239,0.624,0.6241,0,0,0,0,0,0,0.6194,0.6196,0.6207,0.62,0.6201,0.6194,0.6198,0.6197,0.6199,0.6192,0.6191,0.6192,0.6187,0.6188,0.6202,0.6215,0.6188,0.6189,0.6238,0.6239,0.624,0.6266,0,0,0,0,0,0,0.6194,0.6196,0.6204,0.6201,0.6202,0.622,0.6199,0.6197,0.62,0.6198,0.6195,0.6194,0.6187,0.6201,0.6203,0.6215,0.619,0.6237,0.6238,0.624,0.6264,0.6268,0.6272,0,0,0,0,0,0.6193,0.6212,0.6205,0.6206,0.6212,0.6221,0.6221,0.6212,0.6201,0.6209,0.6205,0.6194,0.6213,0.6202,0.6204,0.6217,0.6236,0.6238,0.624,0.6262,0.6267,0.6271,0,0,0,0,0,0,0.6217,0.6211,0.6203,0.6221,0.6222,0.6217,0.6227,0.6218,0.6221,0.6219,0.6208,0.6207,0.6223,0.6221,0.621,0.6238,0.6222,0.6225,0.6239,0.6243,0.6247,0.6247,0.619,0,0,0,0,0,0.6225,0.6232,0.6226,0.6242,0.6243,0.6235,0.6238,0.6231,0.6231,0.6232,0.6228,0.6229,0.6235,0.6239,0.6244,0.6263,0.6263,0.6273,0.6277,0.628,0.6282,0.6293,0.6297,0.6248,0.6248,0.6248,0,0,0.624,0.6238,0.6243,0.6247,0.6247,0.6255,0.6235,0.6245,0.6251,0.6233,0.6246,0.6243,0.6243,0.626,0.6267,0.6259,0.6296,0.6283,0.6285,0.6286,0.6295,0.63,0.6304,0.6249,0.6249,0.6248,0,0,0.6272,0.6271,0.6285,0.6284,0.6283,0.6278,0.6281,0.6278,0.6275,0.6288,0.6275,0.6281,0.6291,0.6292,0.6293,0.6325,0.6315,0.6326,0.6346,0.6356,0.636,0.6364,0.6375,0.6379,0.6329,0.6329,0.6329,0,0.6292,0.6303,0.6293,0.6303,0.6305,0.6289,0.6302,0.6302,0.6303,0.6305,0.6296,0.6308,0.6307,0.6323,0.6331,0.6333,0.6336,0.6327,0.6361,0.6364,0.6367,0.6378,0.6382,0.633,0.633,0.633,0.633,0,0.6327,0.6335,0.6346,0.6347,0.635,0.6362,0.6353,0.6358,0.635,0.6345,0.6358,0.6356,0.636,0.6363,0.6356,0.6378,0.6373,0.6362,0.6347,0.6373,0.6383,0.6387,0.6332,0.6332,0.6331,0.6331,0,0,0.6376,0.637,0.6374,0.6374,0.6372,0.6378,0.6389,0.6392,0.6397,0.6397,0.6406,0.6415,0.6405,0.6406,0.6399,0.6408,0.6433,0.6396,0.6395,0.6403,0.6457,0.6466,0.6471,0.6426,0.6426,0.6427,0.6457,0,0.6407,0.6425,0.6416,0.6435,0.6442,0.6426,0.6436,0.6435,0.6431,0.6436,0.6431,0.6438,0.6424,0.6425,0.6432,0.6428,0.6443,0.6425,0.6434,0.6434,0.6435,0.6476,0.6485,0.6514,0.6461,0.6462,0.6462,0,0.6447,0.6449,0.6469,0.6465,0.6467,0.6476,0.6478,0.6483,0.6482,0.6478,0.648,0.647,0.648,0.6464,0.6478,0.6466,0.6468,0.6466,0.6467,0.6468,0.645,0.6478,0.6523,0.6528,0.6468,0.6468,0.6467,0,0.6481,0.6488,0.6501,0.6502,0.6497,0.6503,0.6502,0.65,0.6502,0.6504,0.6506,0.6509,0.6511,0.6514,0.6505,0.6494,0.652,0.6503,0.6517,0.6518,0.6524,0.6524,0.657,0.6525,0.6525,0.6525,0.6525,0,0.6517,0.653,0.6516,0.6524,0.6538,0.6527,0.6541,0.6537,0.6535,0.6542,0.6529,0.6536,0.6523,0.6529,0.6522,0.6535,0.6536,0.6533,0.6531,0.6534,0.6535,0.6537,0.6535,0.6526,0.6526,0.6525,0.6525,0,0.6558,0.6549,0.6562,0.6556,0.6555,0.6565,0.656,0.6567,0.6561,0.6571,0.6572,0.6563,0.6569,0.656,0.6565,0.6561,0.6578,0.6573,0.6578,0.6577,0.6592,0.6591,0.6642,0.6648,0.6598,0.6599,0.6599,0,0.6582,0.6591,0.6586,0.659,0.6588,0.6594,0.6597,0.6586,0.6589,0.6588,0.6595,0.6599,0.6603,0.6613,0.6607,0.6611,0.6606,0.6623,0.6606,0.6609,0.6606,0.6606,0.6607,0.6627,0.6628,0.6628,0.6628,0,0.6626,0.6621,0.6625,0.6627,0.663,0.6632,0.6632,0.6636,0.6624,0.6628,0.6634,0.6636,0.6641,0.6646,0.6648,0.6646,0.6635,0.6634,0.6637,0.6641,0.6644,0.6643,0.6588,0.6633,0.6632,0.6632,0.6632,0.6632,0.6659,0.6666,0.6664,0.6669,0.6668,0.6668,0.6674,0.6669,0.6674,0.6676,0.6669,0.6677,0.6675,0.6676,0.6675,0.6681,0.6673,0.6679,0.668,0.6682,0.6684,0.6643,0.6681,0.6681,0.6681,0.6681,0.6681,0,0.6702,0.67,0.6704,0.6705,0.6709,0.6697,0.6697,0.6701,0.6708,0.6706,0.671,0.6716,0.672,0.6715,0.6718,0.6724,0.6719,0.6725,0.6725,0.6724,0.6691,0.6687,0.6729,0.6729,0.6729,0.6729,0.6729,0.6729,0.6725,0.6738,0.6732,0.6744,0.6741,0.6747,0.6748,0.6749,0.6748,0.6755,0.6759,0.6755,0.6752,0.6754,0.6758,0.6756,0.6758,0.6766,0.6763,0.6731,0.6727,0.6722,0.6719,0.6767,0.6767,0.6796,0.6796,0.6797]}]]